Flag for India Weather past 2 weeks in Tiruchirappalli, Tamil Nadu, India

Now
95 °F

Passing clouds.


Feels Like: 100 °F
Forecast: 73 / 93 °F
Wind: 10 mph from East

Location: Tiruchchirapalli

Current Time: Mar 3, 2015 at 7:10:05 PM

Latest Report: Mar 3, 2015 at 5:40 PM


Visibility: 5 mi

Pressure: 29.74 "Hg

Humidity: 41%

Dew point: 68 °F

Location of TiruchirappalliLocation

Historic Weather in Tiruchirappalli — Graph

°F

Tiruchirappalli temperature yesterday

Maximum temperature yesterday: 95 °F (at 1:40 PM)
Minimum temperature yesterday: 77 °F (at 5:40 AM)
Average temperature yesterday: 86 °F

Past Weeks' High & Low Weather Summary

 TemperatureHumidityPressure
High97 °F (Feb 28, 1:40 PM)94% (Feb 23, 5:40 AM)30.01 "Hg (Feb 23, 5:40 AM)
Low68 °F (Feb 17, 4:40 AM)25% (Feb 24, 3:40 PM)29.71 "Hg (Feb 27, 4:40 PM)
Average82 °F62%29.87 "Hg
* Reported Feb 16 5:40 PM — Mar 3 5:40 PM, Tiruchirappalli, Weather by CustomWeather, © 2015

Note: Actual official high and low records may vary slightly from our data, if they occured in-between our weather recording intervals... More about our weather records

Advertising

Tiruchirappalli weather history for previous 24 hours

 ConditionsComfort  
Time TempWeatherWind HumidityBarometerVisibility
5:40 PM
Tue, Mar 3
95 °FPassing clouds.10 mph41%29.74 "Hg5 mi
4:40 PM95 °FPassing clouds.8 mph41%29.74 "Hg5 mi
3:40 PM97 °FScattered clouds.8 mph42%29.77 "Hg5 mi
2:40 PM95 °FScattered clouds.7 mph44%29.80 "Hg5 mi
1:40 PM95 °FScattered clouds.9 mph41%29.83 "Hg5 mi
12:40 PM93 °FScattered clouds.7 mph44%29.86 "Hg5 mi
11:40 AM91 °FPassing clouds.7 mph46%29.92 "Hg5 mi
10:40 AM90 °FPassing clouds.7 mph52%29.95 "Hg4 mi
9:40 AM86 °FPassing clouds.2 mph59%29.95 "Hg4 mi
8:40 AM82 °FHaze.6 mph70%29.95 "Hg2 mi
7:40 AM81 °FFog.3 mph79%29.92 "Hg2 mi
6:40 AM77 °FFog.3 mph83%29.89 "Hg2 mi
5:40 AM77 °FFog.2 mph83%29.89 "Hg3 mi
4:40 AM77 °FFog.3 mph83%29.89 "Hg3 mi
3:40 AM77 °FFog.3 mph83%29.89 "Hg3 mi
2:40 AM79 °FFog.2 mph79%29.86 "Hg3 mi
1:40 AM79 °FFog.3 mph79%29.89 "Hg3 mi
12:40 AM79 °FFog.2 mph79%29.92 "Hg3 mi
11:40 PM
Mon, Mar 2
81 °FPassing clouds.3 mph74%29.92 "Hg4 mi
10:40 PM81 °FPassing clouds.7 mph74%29.95 "Hg4 mi
9:40 PM82 °FPassing clouds.8 mph70%29.92 "Hg4 mi
8:40 PM84 °FPassing clouds.14 mph66%29.89 "Hg4 mi
7:40 PM90 °FPassing clouds.13 mph52%29.86 "Hg4 mi
Weather by CustomWeather, © 2015

See weather overviewHow to use our weather pages